SCP
0 0 0 0 0 0 0 0 0 -0 -0 0 0 0 0 -0 0 0 0 0 0 0 0 0 0 0 0 0 0 0 0 0 0 0 0 0 -0 -0 -0 -0 -0 -0 -0
0 0 0 0 0 -0 -0 0 0 -0 -0 0 0 0 0 0 0 0 0 0 0 0 0 0 0 0 0 0 0 0 0 0 0 0 0 0 0 -0 -0 -0 -0 -0 -0
0 0 0 0 0 0 0 0 -0 -0 -0 -0 0 -0 -0 -0 0 0 0 0 0 0 0 0 0 0 1 0 0 0 0 0 0 0 0 0 0 0 -0 -0 -0 0 0
0 0 0 0 0 0 0 -0 -0 -0 0 0 -0 0 0 0 0 0 0 0 0 0 0 1 1 0 0 0 0 0 0 0 0 0 0 0 0 0 0 -0 -0 -0 -0
0 0 0 0 0 0 0 -0 -0 -0 0 -0 -0 -0 0 0 0 0 -0 0 0 0 0 0 0 1 1 0 0 0 0 0 0 0 0 0 0 0 0 0 0 -0 -0
0 0 0 0 0 0 0 0 -0 -0 0 -0 -0 -0 0 0 0 0 -0 0 0 0 0 0 0 0 0 0 0 0 0 0 0 0 0 0 0 0 0 0 0 0 -0
0 0 0 0 0 0 0 0 -0 -0 -0 -0 -0 -0 0 0 0 -0 0 0 0 0 0 0 0 0 0 0 0 0 0 0 0 0 0 0 0 0 0 0 0 0 0
0 0 0 0 0 0 -0 -0 -0 0 -0 -0 0 -0 0 0 0 0 0 0 0 0 0 0 0 0 0 0 0 0 0 0 0 0 0 0 0 0 0 0 0 0 0
0 0 -0 -0 -0 -0 -0 0 -0 -0 -0 0 -0 -0 0 0 -0 0 0 0 0 0 0 0 0 0 0 0 0 0 0 0 0 0 0 0 0 0 0 0 0 0 0
0 0 -0 -0 -0 -0 -0 -0 -0 -0 0 -0 -0 -0 0 -0 0 0 0 0 0 0 0 0 0 0 0 0 0 0 0 0 0 0 0 0 0 0 0 0 0 0 0
0 0 0 0 -0 -0 -0 0 0 -0 -0 -0 -0 -0 -0 -0 -0 -0 0 0 0 0 0 0 0 0 0 0 0 0 0 0 0 0 0 0 0 0 0 -0 -0 -0 -0
0 0 0 0 0 -0 -0 0 0 0 0 0 -0 -0 -0 0 0 -0 -0 -0 0 0 0 0 0 0 0 0 0 0 0 0 0 0 0 0 0 0 0 0 -0 -0 -0
0 0 0 0 -0 -0 -0 -0 -0 -0 -0 -0 -0 -0 -0 0 0 -0 -0 -0 -0 -0 0 -0 0 0 -0 -0 0 -0 -0 0 0 0 0 0 0 -0 -0 -0 -0 -0 -0
0 0 0 0 0 0 0 0 0 -0 -0 -0 -0 -0 -0 0 -0 -0 -0 -0 0 0 0 -0 0 0 0 -0 -0 -0 -0 -0 0 0 0 0 0 -0 -0 0 0 -0 0
0 0 0 0 0 0 0 0 0 0 0 -0 -0 -0 -0 -0 0 -0 -0 -0 -0 0 0 -0 -0 -0 0 0 0 -0 0 -0 -0 0 0 0 0 -0 -0 -0 -0 -0 -0
0 0 0 0 0 0 0 0 0 -0 0 0 0 -0 0 0 0 0 0 -0 0 0 0 -0 0 0 0 0 0 0 0 0 0 0 0 0 0 0 0 0 0 0 0
0 0 0 0 0 0 0 0 -0 -0 -0 0 0 -0 -0 0 0 0 0 0 0 0 0 0 0 0 0 0 0 0 0 0 0 0 0 0 0 0 0 0 0 0 0
0 0 0 0 0 0 0 0 -0 -0 -0 -0 0 -0 0 0 0 0 0 0 0 0 0 0 0 0 0 0 0 0 0 0 0 0 0 0 0 0 0 0 0 0 0
0 0 0 0 0 0 -0 0 0 -0 -0 -0 0 -0 0 0 0 0 0 0 0 0 0 0 0 0 0 0 0 0 0 0 0 0 0 0 0 0 0 0 0 0 0
0 0 0 0 0 0 0 0 0 0 0 -0 0 0 0 0 0 0 0 0 0 0 0 0 0 0 0 0 0 0 0 0 0 0 0 0 0 0 0 0 0 0 0
0 0 0 0 0 0 0 0 0 0 0 0 0 0 0 0 0 0 0 0 0 0 0 0 0 0 0 0 0 0 0 0 0 0 0 0 0 0 0 0 0 0 0
0 0 0 0 0 0 0 0 0 0 0 0 0 0 0 0 0 0 0 0 0 0 0 0 0 0 0 0 0 0 0 0 0 0 0 0 0 0 0 0 0 0 0
0 0 0 0 0 0 0 0 0 0 0 0 0 0 0 0 0 0 0 0 0 0 0 0 0 0 0 0 0 0 0 0 0 0 0 0 0 0 0 0 0 0 0
0 0 0 0 0 0 0 0 0 0 0 0 0 0 0 0 0 0 0 0 0 0 0 0 0 0 0 0 0 0 0 0 0 0 0 0 0 0 0 0 0 0 0
0 0 0 0 0 0 0 0 0 0 0 0 0 0 0 0 0 0 0 0 0 0 0 0 0 0 0 0 0 0 0 0 0 0 0 0 0 0 0 0 0 0 0
0 0 0 0 0 0 0 0 0 0 0 0 0 0 0 0 0 0 0 0 0 0 0 0 0 0 0 0 0 0 0 0 0 0 0 0 0 0 0 0 0 0 0
Wind_Speed_500mb
14 19 25 31 19 9 2 7 4 5 7 5 7 12 13 10 18 8 9 7 5 4 2 3 11 7 11 11 10 10 7 4 5 6 8 10 10 17 21 28 30 30 28
13 18 19 14 11 8 5 3 1 4 6 14 17 17 16 15 7 14 13 8 3 5 6 6 11 12 13 11 10 8 5 2 4 9 9 8 10 9 16 23 29 32 32
8 19 15 9 14 16 6 3 3 8 8 17 15 10 11 10 14 16 10 6 5 8 8 9 11 11 9 10 8 4 1 3 8 9 8 8 5 7 11 17 23 27 30
9 5 8 10 15 10 2 2 4 5 9 14 18 10 11 14 16 7 3 8 8 10 11 8 11 10 6 3 3 4 8 11 12 13 10 8 7 8 9 10 14 18 21
10 17 12 15 14 7 2 6 7 3 7 9 13 13 16 8 4 2 4 8 3 10 11 6 8 4 3 2 4 6 10 11 10 11 8 6 7 7 8 7 8 11 14
14 16 13 16 17 8 3 2 7 9 11 12 17 17 9 9 4 7 7 5 2 2 10 8 4 3 4 6 8 9 9 11 11 8 8 6 5 5 7 7 4 5 9
15 18 11 11 15 15 7 11 13 14 10 11 12 8 6 2 5 1 8 8 4 8 1 6 3 3 4 3 3 7 8 10 10 9 9 9 7 6 4 5 5 3 4
12 15 15 9 12 14 12 17 20 15 8 8 13 8 3 2 9 14 14 6 3 8 9 6 3 5 3 5 3 2 6 10 13 10 9 9 9 7 5 5 5 3 3
14 17 22 24 22 20 16 13 16 14 7 7 9 10 4 3 2 2 4 4 4 4 4 9 6 6 6 3 5 6 7 12 13 14 12 9 6 6 5 4 6 6 3
20 19 24 31 33 29 24 17 16 14 12 7 7 7 6 6 1 2 7 6 4 8 1 4 7 14 8 4 2 7 10 11 12 13 12 10 7 4 3 4 4 6 6
26 25 21 23 29 26 24 21 17 15 15 14 9 8 7 5 4 2 6 4 4 13 9 9 10 16 6 4 5 6 8 11 10 11 11 10 8 6 6 10 6 5 4
30 30 25 27 25 24 23 26 21 15 17 18 18 15 10 6 3 1 4 5 4 12 17 13 7 14 10 4 9 8 7 9 11 10 10 10 9 9 8 10 13 8 5
41 33 31 29 26 22 23 25 25 20 19 21 21 20 15 15 6 5 6 8 10 10 15 15 9 14 15 14 7 12 7 4 7 10 10 12 14 15 12 9 12 17 9
36 32 32 33 29 26 24 23 27 30 28 25 21 18 16 20 16 11 10 5 11 14 18 13 13 16 17 29 15 11 11 7 9 10 11 11 13 15 14 8 8 14 17
38 37 31 31 29 27 25 25 23 24 27 26 27 21 18 18 22 19 14 9 12 19 19 15 10 8 9 15 12 7 13 12 12 11 7 9 10 11 12 11 4 10 12
40 41 36 39 43 34 27 28 26 24 26 26 22 27 20 17 22 18 14 14 10 9 12 14 13 13 13 12 13 11 14 15 13 14 10 10 11 9 8 7 5 7 11
43 45 40 34 36 40 40 39 35 31 28 28 28 31 25 23 22 23 22 17 16 16 15 13 9 6 8 11 16 14 17 18 19 19 16 13 14 10 8 8 7 8 9
53 55 50 42 37 36 42 46 45 40 35 31 29 29 25 26 26 26 30 29 24 22 22 21 17 14 14 15 20 21 20 19 22 22 21 16 14 10 10 12 12 12 12
55 57 52 45 39 42 42 46 48 45 40 37 34 36 36 30 32 30 26 29 26 21 21 21 21 22 25 25 25 27 25 24 24 25 25 22 17 14 11 11 10 11 12
61 59 59 51 47 47 45 51 51 46 42 42 41 39 36 36 32 32 35 36 34 34 31 31 29 28 29 29 28 28 29 28 28 27 32 20 16 14 15 10 9 11 12
58 63 58 54 51 50 52 52 57 53 52 51 47 43 42 42 37 35 35 36 36 34 32 29 30 30 30 32 31 27 28 29 29 32 21 18 19 17 14 15 14 13 9
56 61 66 63 61 59 52 53 54 54 53 52 51 48 44 43 41 40 37 35 35 38 36 35 35 35 32 33 32 31 27 31 33 30 26 21 22 21 14 14 7 2 6
56 56 56 56 55 53 52 52 51 56 56 56 54 51 48 45 44 43 38 35 38 42 41 40 38 35 33 31 31 31 30 30 29 28 28 32 25 20 12 7 4 2 3
69 62 59 63 62 65 58 54 51 53 58 60 58 52 53 51 46 44 40 38 36 35 35 36 37 34 34 33 31 29 25 26 33 32 23 24 20 14 9 8 6 5 6
63 58 58 65 67 67 65 63 56 61 62 61 59 60 58 59 58 54 50 44 42 40 38 39 38 35 32 31 30 28 27 27 28 24 21 17 13 14 14 13 13 11 12
55 60 63 62 59 60 56 67 67 64 67 69 66 64 65 68 61 62 60 56 49 48 46 46 44 38 32 28 26 24 22 17 17 19 24 22 19 24 19 20 18 18 19
Wind_Direction_500mb
128 126 138 145 150 167 171 117 38 341 352 27 348 353 349 351 328 342 357 58 58 95 49 22 105 117 142 140 142 130 129 151 208 235 259 257 252 240 240 240 235 231 228
148 155 154 151 171 183 188 140 299 2 332 320 311 327 325 324 322 359 14 2 62 111 111 119 121 125 128 133 135 125 127 184 245 248 234 238 246 271 250 240 239 237 235
175 180 173 183 164 169 189 328 282 332 22 350 22 325 304 319 346 22 50 54 85 100 121 136 146 122 132 141 124 107 58 293 289 285 283 278 298 284 281 251 240 238 238
188 186 177 192 160 167 233 117 41 113 14 29 5 23 349 295 315 284 86 69 60 93 96 165 159 141 149 126 74 1 329 312 293 285 284 285 304 317 308 266 249 239 233
217 157 159 184 179 181 76 122 70 357 344 19 5 341 328 237 133 151 185 87 67 84 99 141 148 150 202 272 296 305 308 308 289 276 285 281 297 314 320 299 267 245 238
165 178 167 179 190 188 174 232 329 328 348 355 352 354 322 127 132 182 209 134 151 154 100 80 119 84 215 232 255 282 299 311 318 307 304 305 296 299 318 331 293 278 264
204 194 206 206 209 225 254 292 293 306 306 329 350 347 102 11 133 265 139 165 18 251 219 75 89 102 49 3 266 289 310 320 334 329 315 318 310 300 307 336 342 303 262
218 212 224 247 258 258 259 274 281 287 295 344 347 346 293 65 102 128 107 118 330 347 246 200 235 193 101 61 23 267 303 342 356 349 334 318 312 304 306 343 4 350 288
253 249 251 254 259 259 260 257 277 273 260 301 312 328 308 27 224 272 209 216 265 233 281 222 243 240 221 110 17 10 3 357 4 360 346 330 310 299 295 325 1 11 1
264 252 261 260 253 270 271 255 261 250 231 276 247 273 335 329 324 316 266 279 214 211 276 294 278 216 241 216 345 350 6 5 11 4 1 357 352 342 302 285 314 351 9
257 243 266 264 253 264 261 250 258 236 226 233 257 255 291 338 253 301 95 28 248 216 208 231 220 208 184 252 274 314 350 7 21 16 12 11 356 317 275 273 291 295 332
253 250 261 262 265 257 270 248 254 243 236 241 256 274 264 245 133 217 294 283 270 221 224 225 222 211 229 300 248 282 324 4 7 15 14 10 2 342 304 260 242 258 276
248 256 261 268 263 269 285 240 242 244 248 243 257 263 241 239 246 265 270 253 240 225 205 226 215 204 233 265 259 266 273 342 357 343 339 337 338 340 324 292 237 231 240
250 254 255 268 265 268 270 243 245 244 250 245 243 260 249 239 244 268 263 272 245 218 222 234 228 211 284 243 272 258 250 271 324 319 322 329 329 339 349 338 232 226 230
257 251 253 262 263 260 262 248 244 240 247 248 241 254 250 246 229 251 235 268 258 237 235 241 246 251 328 206 239 275 259 273 308 296 290 316 326 335 343 348 301 240 245
254 252 251 258 260 254 253 249 241 234 246 244 250 256 256 256 230 241 262 243 259 269 250 240 252 267 261 250 239 266 265 259 274 271 286 314 317 317 328 333 313 266 262
249 241 246 258 256 256 258 248 240 236 248 254 260 264 260 256 247 236 241 262 258 260 266 265 261 261 259 264 235 257 264 264 261 257 267 288 308 303 303 301 292 281 276
242 239 245 248 248 257 247 246 242 241 247 256 269 266 265 261 253 246 245 254 263 264 258 261 270 256 258 258 250 256 268 262 259 260 265 268 283 288 304 297 289 283 280
243 242 243 241 244 248 251 247 245 248 253 259 264 263 260 256 251 248 247 252 259 266 254 258 261 259 262 263 260 258 263 257 256 259 258 259 267 268 288 294 285 280 278
248 243 241 242 245 249 263 247 251 249 253 256 264 265 253 252 254 246 253 256 260 266 264 258 259 261 262 263 258 257 259 262 263 263 257 249 253 263 268 266 267 277 278
243 245 247 249 254 250 254 253 249 251 258 259 262 265 256 256 254 249 258 259 259 258 260 256 257 258 258 258 259 260 250 262 259 261 248 264 258 261 266 275 279 285 288
247 245 246 250 253 255 256 252 252 254 256 257 258 257 259 259 254 253 257 253 253 252 255 260 265 266 268 265 266 262 254 251 250 257 269 254 261 262 282 283 244 250 301
244 246 248 250 251 252 251 253 254 255 254 256 257 254 252 257 262 261 262 256 256 251 255 257 258 265 267 265 260 257 256 261 257 256 260 246 253 265 263 215 234 198 152
239 242 247 254 259 256 256 254 255 257 259 258 257 258 251 251 259 263 266 268 262 250 253 252 257 264 270 265 259 257 255 248 243 248 240 234 245 241 201 181 157 153 148
235 243 248 256 261 261 258 256 255 256 257 258 254 251 247 250 253 256 259 264 262 257 255 255 258 266 265 257 254 244 236 231 239 242 221 230 226 196 166 153 134 125 131
248 253 265 253 261 260 258 255 254 256 256 258 257 254 252 251 254 251 252 255 261 262 257 253 256 262 253 239 231 218 202 213 215 220 216 216 203 169 159 162 146 130 122
Wind_Speed_850mb
14 19 25 31 19 9 2 7 4 5 7 5 7 12 13 10 18 8 9 7 5 4 2 3 11 7 11 11 10 10 7 4 5 6 8 10 10 17 21 28 30 30 28
13 18 19 14 11 8 5 3 1 4 6 14 17 17 16 15 7 14 13 8 3 5 6 6 11 12 13 11 10 8 5 2 4 9 9 8 10 9 16 23 29 32 32
8 19 15 9 14 16 6 3 3 8 8 17 15 10 11 10 14 16 10 6 5 8 8 9 11 11 9 10 8 4 1 3 8 9 8 8 5 7 11 17 23 27 30
9 5 8 10 15 10 2 2 4 5 9 14 18 10 11 14 16 7 3 8 8 10 11 8 11 10 6 3 3 4 8 11 12 13 10 8 7 8 9 10 14 18 21
10 17 12 15 14 7 2 6 7 3 7 9 13 13 16 8 4 2 4 8 3 10 11 6 8 4 3 2 4 6 10 11 10 11 8 6 7 7 8 7 8 11 14
14 16 13 16 17 8 3 2 7 9 11 12 17 17 9 9 4 7 7 5 2 2 10 8 4 3 4 6 8 9 9 11 11 8 8 6 5 5 7 7 4 5 9
15 18 11 11 15 15 7 11 13 14 10 11 12 8 6 2 5 1 8 8 4 8 1 6 3 3 4 3 3 7 8 10 10 9 9 9 7 6 4 5 5 3 4
12 15 15 9 12 14 12 17 20 15 8 8 13 8 3 2 9 14 14 6 3 8 9 6 3 5 3 5 3 2 6 10 13 10 9 9 9 7 5 5 5 3 3
14 17 22 24 22 20 16 13 16 14 7 7 9 10 4 3 2 2 4 4 4 4 4 9 6 6 6 3 5 6 7 12 13 14 12 9 6 6 5 4 6 6 3
20 19 24 31 33 29 24 17 16 14 12 7 7 7 6 6 1 2 7 6 4 8 1 4 7 14 8 4 2 7 10 11 12 13 12 10 7 4 3 4 4 6 6
26 25 21 23 29 26 24 21 17 15 15 14 9 8 7 5 4 2 6 4 4 13 9 9 10 16 6 4 5 6 8 11 10 11 11 10 8 6 6 10 6 5 4
30 30 25 27 25 24 23 26 21 15 17 18 18 15 10 6 3 1 4 5 4 12 17 13 7 14 10 4 9 8 7 9 11 10 10 10 9 9 8 10 13 8 5
41 33 31 29 26 22 23 25 25 20 19 21 21 20 15 15 6 5 6 8 10 10 15 15 9 14 15 14 7 12 7 4 7 10 10 12 14 15 12 9 12 17 9
36 32 32 33 29 26 24 23 27 30 28 25 21 18 16 20 16 11 10 5 11 14 18 13 13 16 17 29 15 11 11 7 9 10 11 11 13 15 14 8 8 14 17
38 37 31 31 29 27 25 25 23 24 27 26 27 21 18 18 22 19 14 9 12 19 19 15 10 8 9 15 12 7 13 12 12 11 7 9 10 11 12 11 4 10 12
40 41 36 39 43 34 27 28 26 24 26 26 22 27 20 17 22 18 14 14 10 9 12 14 13 13 13 12 13 11 14 15 13 14 10 10 11 9 8 7 5 7 11
43 45 40 34 36 40 40 39 35 31 28 28 28 31 25 23 22 23 22 17 16 16 15 13 9 6 8 11 16 14 17 18 19 19 16 13 14 10 8 8 7 8 9
53 55 50 42 37 36 42 46 45 40 35 31 29 29 25 26 26 26 30 29 24 22 22 21 17 14 14 15 20 21 20 19 22 22 21 16 14 10 10 12 12 12 12
55 57 52 45 39 42 42 46 48 45 40 37 34 36 36 30 32 30 26 29 26 21 21 21 21 22 25 25 25 27 25 24 24 25 25 22 17 14 11 11 10 11 12
61 59 59 51 47 47 45 51 51 46 42 42 41 39 36 36 32 32 35 36 34 34 31 31 29 28 29 29 28 28 29 28 28 27 32 20 16 14 15 10 9 11 12
58 63 58 54 51 50 52 52 57 53 52 51 47 43 42 42 37 35 35 36 36 34 32 29 30 30 30 32 31 27 28 29 29 32 21 18 19 17 14 15 14 13 9
56 61 66 63 61 59 52 53 54 54 53 52 51 48 44 43 41 40 37 35 35 38 36 35 35 35 32 33 32 31 27 31 33 30 26 21 22 21 14 14 7 2 6
56 56 56 56 55 53 52 52 51 56 56 56 54 51 48 45 44 43 38 35 38 42 41 40 38 35 33 31 31 31 30 30 29 28 28 32 25 20 12 7 4 2 3
69 62 59 63 62 65 58 54 51 53 58 60 58 52 53 51 46 44 40 38 36 35 35 36 37 34 34 33 31 29 25 26 33 32 23 24 20 14 9 8 6 5 6
63 58 58 65 67 67 65 63 56 61 62 61 59 60 58 59 58 54 50 44 42 40 38 39 38 35 32 31 30 28 27 27 28 24 21 17 13 14 14 13 13 11 12
55 60 63 62 59 60 56 67 67 64 67 69 66 64 65 68 61 62 60 56 49 48 46 46 44 38 32 28 26 24 22 17 17 19 24 22 19 24 19 20 18 18 19
Wind_Direction_850mb
128 126 138 145 150 167 171 117 38 341 352 27 348 353 349 351 328 342 357 58 58 95 49 22 105 117 142 140 142 130 129 151 208 235 259 257 252 240 240 240 235 231 228
148 155 154 151 171 183 188 140 299 2 332 320 311 327 325 324 322 359 14 2 62 111 111 119 121 125 128 133 135 125 127 184 245 248 234 238 246 271 250 240 239 237 235
175 180 173 183 164 169 189 328 282 332 22 350 22 325 304 319 346 22 50 54 85 100 121 136 146 122 132 141 124 107 58 293 289 285 283 278 298 284 281 251 240 238 238
188 186 177 192 160 167 233 117 41 113 14 29 5 23 349 295 315 284 86 69 60 93 96 165 159 141 149 126 74 1 329 312 293 285 284 285 304 317 308 266 249 239 233
217 157 159 184 179 181 76 122 70 357 344 19 5 341 328 237 133 151 185 87 67 84 99 141 148 150 202 272 296 305 308 308 289 276 285 281 297 314 320 299 267 245 238
165 178 167 179 190 188 174 232 329 328 348 355 352 354 322 127 132 182 209 134 151 154 100 80 119 84 215 232 255 282 299 311 318 307 304 305 296 299 318 331 293 278 264
204 194 206 206 209 225 254 292 293 306 306 329 350 347 102 11 133 265 139 165 18 251 219 75 89 102 49 3 266 289 310 320 334 329 315 318 310 300 307 336 342 303 262
218 212 224 247 258 258 259 274 281 287 295 344 347 346 293 65 102 128 107 118 330 347 246 200 235 193 101 61 23 267 303 342 356 349 334 318 312 304 306 343 4 350 288
253 249 251 254 259 259 260 257 277 273 260 301 312 328 308 27 224 272 209 216 265 233 281 222 243 240 221 110 17 10 3 357 4 360 346 330 310 299 295 325 1 11 1
264 252 261 260 253 270 271 255 261 250 231 276 247 273 335 329 324 316 266 279 214 211 276 294 278 216 241 216 345 350 6 5 11 4 1 357 352 342 302 285 314 351 9
257 243 266 264 253 264 261 250 258 236 226 233 257 255 291 338 253 301 95 28 248 216 208 231 220 208 184 252 274 314 350 7 21 16 12 11 356 317 275 273 291 295 332
253 250 261 262 265 257 270 248 254 243 236 241 256 274 264 245 133 217 294 283 270 221 224 225 222 211 229 300 248 282 324 4 7 15 14 10 2 342 304 260 242 258 276
248 256 261 268 263 269 285 240 242 244 248 243 257 263 241 239 246 265 270 253 240 225 205 226 215 204 233 265 259 266 273 342 357 343 339 337 338 340 324 292 237 231 240
250 254 255 268 265 268 270 243 245 244 250 245 243 260 249 239 244 268 263 272 245 218 222 234 228 211 284 243 272 258 250 271 324 319 322 329 329 339 349 338 232 226 230
257 251 253 262 263 260 262 248 244 240 247 248 241 254 250 246 229 251 235 268 258 237 235 241 246 251 328 206 239 275 259 273 308 296 290 316 326 335 343 348 301 240 245
254 252 251 258 260 254 253 249 241 234 246 244 250 256 256 256 230 241 262 243 259 269 250 240 252 267 261 250 239 266 265 259 274 271 286 314 317 317 328 333 313 266 262
249 241 246 258 256 256 258 248 240 236 248 254 260 264 260 256 247 236 241 262 258 260 266 265 261 261 259 264 235 257 264 264 261 257 267 288 308 303 303 301 292 281 276
242 239 245 248 248 257 247 246 242 241 247 256 269 266 265 261 253 246 245 254 263 264 258 261 270 256 258 258 250 256 268 262 259 260 265 268 283 288 304 297 289 283 280
243 242 243 241 244 248 251 247 245 248 253 259 264 263 260 256 251 248 247 252 259 266 254 258 261 259 262 263 260 258 263 257 256 259 258 259 267 268 288 294 285 280 278
248 243 241 242 245 249 263 247 251 249 253 256 264 265 253 252 254 246 253 256 260 266 264 258 259 261 262 263 258 257 259 262 263 263 257 249 253 263 268 266 267 277 278
243 245 247 249 254 250 254 253 249 251 258 259 262 265 256 256 254 249 258 259 259 258 260 256 257 258 258 258 259 260 250 262 259 261 248 264 258 261 266 275 279 285 288
247 245 246 250 253 255 256 252 252 254 256 257 258 257 259 259 254 253 257 253 253 252 255 260 265 266 268 265 266 262 254 251 250 257 269 254 261 262 282 283 244 250 301
244 246 248 250 251 252 251 253 254 255 254 256 257 254 252 257 262 261 262 256 256 251 255 257 258 265 267 265 260 257 256 261 257 256 260 246 253 265 263 215 234 198 152
239 242 247 254 259 256 256 254 255 257 259 258 257 258 251 251 259 263 266 268 262 250 253 252 257 264 270 265 259 257 255 248 243 248 240 234 245 241 201 181 157 153 148
235 243 248 256 261 261 258 256 255 256 257 258 254 251 247 250 253 256 259 264 262 257 255 255 258 266 265 257 254 244 236 231 239 242 221 230 226 196 166 153 134 125 131
248 253 265 253 261 260 258 255 254 256 256 258 257 254 252 251 254 251 252 255 261 262 257 253 256 262 253 239 231 218 202 213 215 220 216 216 203 169 159 162 146 130 122